Location: Arcones
(41.1182°N, 3.7238°W)
Time: 08:47:11
(UTC+00:00)

IRIDIUM 106 - Pass Details

Date: 16 March 2026
Orbit: 776 x 780 km, 86.4° (Epoch: 18 April)

Event Time Altitude Azimuth Distance (km) Brightness Sun altitude
Exits shadow 22:35:40 13° 319° (NW) 2,114 7.1 -43.5°
Drops below altitude 10° 22:36:38 10° 328° (NNW) 2,339 7.4 -43.6°
Sets 22:39:44 0° 347° (NNW) 3,272 8.2 -43.9°
